This is the latest recevied weather packets stored in our database for station/object DB5ZQ. If no packets are shown the sender has not sent any weather packets the latest 10 day(s).
| Time | Temp. | Humidity | Pressure | Rain* | Wind** | Luminosity | Snow |
|---|---|---|---|---|---|---|---|
| 1787884944 | 23.33° C | 80% | 1006.3 hPa | 0.25 mm | - | - | - |
| 1787884644 | 23.33° C | 80% | 1006.2 hPa | 0.25 mm | - | - | - |
| 1787884344 | 23.33° C | 80% | 1006.1 hPa | 0.25 mm | - | - | - |
| 1787884043 | 23.33° C | 80% | 1006 hPa | 0.25 mm | - | - | - |
| 1787883743 | 23.33° C | 80% | 1006 hPa | 0.25 mm | - | - | - |
| 1787883443 | 23.33° C | 79% | 1005.8 hPa | 0.25 mm | - | - | - |
| 1787883143 | 23.89° C | 79% | 1006 hPa | 0.25 mm | - | - | - |
| 1787882842 | 23.89° C | 79% | 1006.3 hPa | 0.25 mm | - | - | - |
| 1787882542 | 23.89° C | 79% | 1006.3 hPa | 0.25 mm | - | - | - |
| 1787882242 | 23.33° C | 79% | 1006.2 hPa | 0.25 mm | - | - | - |
| 1787881941 | 23.89° C | 79% | 1006.4 hPa | 0.25 mm | - | - | - |
| 1787881641 | 23.89° C | 79% | 1006.5 hPa | 0.25 mm | - | - | - |
| 1787881341 | 23.89° C | 78% | 1006.3 hPa | 0 mm | - | - | - |
| 1787881041 | 23.89° C | 78% | 1006.2 hPa | 0.51 mm | - | - | - |
| 1787880740 | 23.89° C | 78% | 1006.3 hPa | 0.76 mm | - | - | - |
| 1787880440 | 23.89° C | 78% | 1006.1 hPa | 1.27 mm | - | - | - |
| 1787880140 | 23.89° C | 78% | 1005.8 hPa | 1.78 mm | - | - | - |
| 1787879839 | 23.89° C | 78% | 1006 hPa | 2.29 mm | - | - | - |
| 1787879539 | 23.89° C | 78% | 1006 hPa | 2.79 mm | - | - | - |
| 1787879239 | 23.89° C | 78% | 1006 hPa | 3.56 mm | - | - | - |
| 1787878939 | 23.89° C | 78% | 1005.8 hPa | 4.32 mm | - | - | - |
| 1787878638 | 23.89° C | 77% | 1005.6 hPa | 5.33 mm | - | - | - |
| 1787878338 | 23.89° C | 77% | 1006 hPa | 6.35 mm | - | - | - |
| 1787878038 | 23.89° C | 77% | 1006.4 hPa | 7.62 mm | - | - | - |
| 1787877737 | 23.89° C | 77% | 1006.3 hPa | 9.14 mm | - | - | - |
* Rain latest hour (hover to see other rain measurements)
** Current wind speed in m/s (hover to see current wind gust speed)